Vertical_Velocity
2 4 4 4 2 1 1 1 -2 1 0 -8 1 2 -1 3 13 7 6 5 6 2 -0 -4 -4 -1 -8 15 3 -7 3 37 6 21 -2 -1 -0 10 4 3 -2 2 -3 -14
2 6 3 -0 1 2 4 1 -1 -0 -0 -1 1 1 2 -1 6 6 5 2 2 2 0 -7 -3 -2 -5 -9 0 12 2 2 12 6 1 -3 -2 0 -3 -0 2 0 -2 -10
11 4 2 0 3 2 1 -0 -3 2 -4 -2 1 -2 5 3 8 7 5 0 -0 1 -1 -5 -0 -7 -5 -4 -1 -2 -5 -9 -0 12 10 7 1 1 -0 0 -6 6 5 -6
5 2 1 -2 3 2 -2 -0 1 3 6 0 0 -3 8 4 7 5 2 1 0 0 -2 -6 -3 -4 -0 -1 -4 -6 -3 1 6 3 -16 1 -1 -4 3 -6 9 -4 10 6
1 13 2 0 2 -1 -2 0 -1 0 2 1 -1 -4 19 4 5 -0 3 2 4 1 2 17 3 -2 -3 3 -1 -2 -2 -3 1 -5 4 6 2 0 -5 -1 -5 -1 -3 -4
-1 7 3 0 -0 1 2 0 0 1 1 3 -1 -1 4 9 6 2 3 1 1 0 -4 -2 1 -2 9 5 5 6 7 4 4 2 1 -3 -14 2 0 -1 -7 10 -11 28
3 5 12 -2 -1 1 1 -1 -0 1 0 3 -1 -0 2 10 4 -1 6 0 -4 -2 -0 -1 -3 -2 -3 -3 -4 -6 -6 -2 0 -5 0 -14 6 7 3 -3 -5 -6 -0 4
4 0 -9 -8 -1 1 2 -1 2 1 1 3 -0 -1 1 10 5 0 -1 -0 -0 -4 -2 2 -5 -4 -3 -7 -5 -3 -3 -4 -5 -8 3 -0 4 1 -1 -4 8 -5 -2 -3
1 8 9 9 -1 -2 1 -1 2 0 0 3 -0 -0 2 8 4 6 -2 -1 1 0 -2 1 0 -2 4 -2 -1 0 -1 -1 -2 -1 -2 1 -4 1 0 -2 7 2 1 -1
8 6 0 4 2 2 1 2 3 1 1 1 -1 2 0 8 4 2 2 -0 -0 -1 -0 -0 -1 0 2 -3 0 -3 -3 -2 -1 -1 -2 -0 3 -1 -1 -1 4 -1 0 1
6 -3 9 -3 -4 2 1 1 3 1 2 -0 -0 -0 1 0 7 4 2 -2 -3 1 -1 -1 1 -1 -1 -0 1 5 3 0 -1 -2 -1 -0 1 1 3 3 4 2 1 1
-3 3 3 0 -2 -1 -1 0 3 2 1 0 -1 -0 -1 -1 11 4 4 5 2 0 -2 -1 0 0 1 1 0 -2 -9 -2 2 4 3 2 4 -0 -0 1 0 -0 -0 -0
5 4 -1 3 -3 0 3 2 2 3 0 -1 -1 -0 -1 -1 19 -4 6 5 11 7 4 10 6 -0 1 1 0 -2 -0 5 -3 2 4 1 -0 -0 -1 -2 -0 -1 -1 -1
-2 0 -1 -0 1 1 4 3 3 2 1 0 1 1 5 -0 7 4 1 16 2 -0 4 3 7 4 4 2 1 -0 0 -1 2 1 0 0 -1 -1 0 1 -0 0 -0 -0
0 3 4 -1 1 1 1 2 2 1 1 2 -2 -2 -2 0 -0 10 1 3 3 9 2 2 3 0 4 -0 1 3 2 3 -1 1 -2 4 1 1 1 1 1 -0 -0 0
2 5 2 -0 2 2 -1 -1 -1 1 2 0 -0 1 -1 0 0 -1 2 -3 1 0 0 1 1 -2 -1 -3 -0 -2 1 -0 2 1 1 -0 -0 -1 -1 -2 -1 -1 -0 1
0 0 1 1 -1 1 -2 -2 5 3 3 -2 -1 -2 -1 0 0 -0 2 -2 -6 3 1 2 0 0 -2 1 3 -1 1 1 -0 -1 -2 -0 -0 0 1 1 0 -0 -0 -1
4 2 5 1 -3 -2 -0 2 3 4 3 1 -2 1 1 2 2 -0 3 3 0 -6 -0 1 0 -2 -0 0 6 4 -0 -1 -0 -1 -1 -1 -0 -1 -1 -2 -2 -1 -1 -0
6 4 7 -1 -7 -3 -1 5 2 -1 -2 3 -3 1 4 -3 1 -1 0 0 -3 -4 -3 -9 -8 -4 2 11 5 -4 -2 -1 0 -2 -1 -2 -3 -2 -1 -1 -2 -1 -1 -2
8 7 0 5 4 7 2 -1 -2 -2 -5 -4 -0 4 -2 2 2 3 1 -1 -2 -6 -2 -2 -12 1 4 3 -0 -4 -3 -0 -3 -1 -2 -0 -0 -1 -1 -1 -1 -0 -0 -1
3 -10 -7 11 9 4 2 -8 -6 -4 -4 0 8 2 1 -2 -1 1 -3 -0 -4 -3 6 -7 -6 6 8 -8 -6 -3 -2 -1 -0 -1 1 -2 1 1 -0 -0 0 -1 -1 1
-0 6 15 15 5 -2 -8 -8 -10 -4 -5 -4 5 2 0 -0 1 0 -2 -2 1 -5 4 -7 -4 14 -3 -2 1 0 -1 -1 -1 0 -2 -2 -0 0 1 1 0 1 1 -1
3 6 9 10 -9 -19 -13 -6 -7 -6 19 16 13 6 6 -1 1 1 5 -2 -5 -2 -5 -5 6 1 3 1 -2 -0 2 2 -0 -2 -1 1 1 2 3 1 1 1 -0 -1
5 4 -9 -3 -20 -14 -3 15 11 8 11 7 4 -2 -2 1 1 -1 -2 -2 -1 -7 -4 6 4 2 1 1 1 1 -0 -1 -1 -0 3 3 3 1 0 0 0 -1 -0 1
9 -1 -6 -7 -2 5 4 2 6 8 6 3 4 -2 -2 -1 -3 -0 -2 -3 -6 -2 6 3 -0 -1 -1 -1 -1 -0 1 3 4 4 3 2 1 0 0 -0 -1 0 1 1
5 -5 -9 -2 -3 1 2 4 4 8 5 2 -5 0 -4 -1 -2 3 0 1 -0 -0 0 2 0 -0 -2 -0 2 2 2 1 -0 -0 -0 0 1 0 -0 1 1 1 2 2
-5 -14 -2 5 4 -2 1 3 8 2 -3 -1 1 2 -1 3 -2 2 1 3 2 -3 -4 -2 -0 -1 -0 -1 -1 -0 -0 0 0 0 0 -0 -0 1 1 1 2 2 1 -1
Height
5520 5527 5537 5547 5557 5564 5571 5577 5581 5584 5584 5584 5581 5579 5577 5575 5570 5565 5562 5560 5557 5556 5555 5558 5565 5572 5577 5583 5589 5596 5604 5608 5618 5625 5634 5643 5651 5661 5667 5674 5681 5685 5691 5691
5510 5519 5529 5538 5549 5557 5564 5570 5574 5577 5578 5578 5575 5575 5572 5569 5565 5563 5561 5559 5557 5555 5556 5560 5566 5574 5580 5587 5594 5600 5606 5614 5620 5628 5636 5641 5647 5657 5665 5669 5675 5680 5688 5691
5504 5511 5521 5531 5542 5550 5557 5564 5568 5572 5572 5572 5570 5570 5568 5566 5563 5560 5559 5558 5557 5556 5557 5562 5569 5574 5582 5590 5598 5603 5607 5615 5622 5631 5637 5644 5651 5658 5663 5669 5673 5679 5685 5685
5497 5506 5514 5524 5535 5543 5550 5556 5562 5566 5568 5566 5566 5566 5566 5563 5559 5558 5557 5556 5556 5558 5559 5564 5569 5575 5583 5591 5598 5604 5610 5617 5624 5629 5633 5642 5647 5653 5658 5662 5670 5674 5681 5683
5490 5500 5508 5518 5529 5536 5544 5551 5556 5559 5563 5562 5563 5563 5563 5561 5558 5557 5557 5556 5556 5558 5561 5571 5575 5579 5586 5593 5599 5606 5613 5620 5624 5629 5635 5641 5645 5649 5654 5660 5666 5669 5673 5679
5483 5492 5502 5513 5523 5533 5540 5545 5550 5554 5557 5557 5560 5561 5561 5559 5558 5558 5557 5555 5557 5558 5562 5567 5574 5583 5590 5596 5603 5609 5615 5620 5624 5629 5633 5637 5641 5648 5652 5658 5663 5667 5670 5678
5480 5491 5500 5508 5518 5527 5534 5540 5545 5549 5553 5554 5556 5558 5559 5558 5558 5559 5558 5556 5557 5561 5565 5570 5575 5581 5589 5596 5602 5606 5612 5617 5621 5625 5629 5633 5640 5644 5648 5650 5656 5660 5664 5667
5477 5486 5495 5504 5514 5521 5529 5535 5540 5545 5548 5550 5553 5556 5556 5558 5558 5560 5559 5560 5560 5562 5568 5573 5575 5581 5588 5594 5600 5605 5610 5614 5618 5622 5627 5631 5637 5640 5642 5644 5651 5653 5658 5658
5473 5483 5492 5502 5510 5517 5525 5530 5536 5540 5544 5548 5551 5553 5555 5557 5558 5561 5561 5562 5565 5565 5570 5575 5578 5581 5588 5593 5598 5602 5607 5611 5615 5618 5622 5628 5631 5634 5636 5639 5646 5647 5650 5652
5469 5476 5483 5494 5504 5513 5520 5526 5531 5536 5540 5544 5548 5551 5553 5556 5558 5560 5561 5564 5566 5569 5572 5576 5580 5585 5589 5593 5597 5601 5604 5607 5612 5616 5619 5624 5627 5630 5632 5637 5644 5641 5644 5646
5464 5471 5481 5488 5500 5509 5516 5523 5527 5532 5537 5541 5544 5548 5551 5553 5556 5558 5561 5564 5567 5571 5574 5577 5581 5585 5589 5593 5597 5601 5604 5606 5610 5614 5619 5623 5625 5627 5631 5634 5635 5637 5639 5641
5459 5469 5478 5486 5496 5505 5512 5518 5524 5528 5534 5538 5541 5544 5548 5551 5553 5555 5559 5564 5567 5571 5573 5578 5581 5584 5588 5592 5595 5597 5600 5605 5609 5614 5617 5619 5621 5624 5625 5628 5631 5633 5635 5636
5457 5467 5475 5485 5493 5500 5508 5515 5519 5524 5529 5534 5538 5541 5545 5548 5551 5552 5556 5562 5566 5569 5573 5576 5579 5583 5586 5589 5593 5595 5598 5603 5606 5609 5614 5616 5618 5621 5623 5625 5628 5629 5630 5631
5453 5463 5472 5481 5490 5498 5505 5510 5516 5521 5526 5531 5535 5538 5542 5545 5550 5549 5555 5558 5562 5566 5570 5574 5577 5581 5583 5586 5591 5594 5597 5599 5603 5608 5610 5613 5615 5617 5620 5622 5623 5624 5624 5625
5450 5460 5469 5478 5487 5494 5500 5506 5512 5517 5524 5528 5531 5535 5539 5542 5545 5549 5550 5555 5559 5562 5567 5570 5573 5577 5581 5584 5588 5592 5595 5598 5602 5605 5607 5610 5612 5614 5615 5616 5618 5618 5618 5618
5447 5457 5466 5474 5483 5491 5496 5502 5508 5514 5519 5524 5527 5532 5535 5539 5543 5546 5549 5550 5556 5560 5563 5567 5571 5574 5579 5582 5586 5590 5593 5596 5600 5602 5604 5606 5608 5610 5611 5612 5613 5612 5612 5611
5445 5453 5461 5470 5479 5486 5492 5498 5506 5511 5515 5520 5524 5527 5532 5536 5540 5544 5547 5549 5553 5559 5562 5567 5570 5574 5577 5582 5586 5588 5591 5594 5596 5598 5600 5602 5604 5605 5606 5606 5605 5605 5604 5603
5442 5450 5458 5465 5473 5482 5489 5495 5501 5506 5511 5517 5520 5524 5529 5533 5537 5541 5545 5548 5550 5552 5557 5562 5566 5570 5574 5579 5583 5586 5587 5589 5591 5592 5594 5596 5597 5598 5599 5598 5598 5597 5596 5595
5439 5447 5454 5460 5468 5477 5484 5491 5495 5500 5507 5511 5515 5519 5524 5527 5532 5536 5540 5544 5547 5551 5554 5557 5561 5564 5569 5576 5579 5580 5582 5583 5585 5586 5588 5589 5590 5591 5590 5589 5589 5589 5588 5588
5437 5443 5450 5458 5465 5472 5478 5484 5489 5494 5498 5505 5510 5516 5520 5523 5527 5530 5535 5538 5542 5545 5551 5554 5556 5561 5567 5569 5572 5574 5576 5577 5578 5579 5580 5581 5581 5581 5580 5581 5580 5580 5579 5578
5430 5437 5445 5454 5461 5464 5469 5475 5482 5487 5494 5501 5507 5512 5514 5517 5521 5524 5526 5530 5534 5538 5544 5546 5549 5556 5559 5559 5562 5566 5568 5568 5569 5570 5571 5572 5572 5572 5572 5572 5571 5570 5569 5568
5428 5436 5442 5449 5452 5456 5462 5468 5475 5481 5489 5495 5500 5505 5509 5512 5516 5519 5522 5524 5527 5530 5535 5537 5543 5550 5549 5551 5553 5556 5557 5559 5560 5561 5561 5563 5563 5563 5562 5562 5561 5561 5560 5560
5421 5428 5432 5438 5443 5450 5456 5463 5470 5476 5483 5492 5496 5499 5503 5506 5510 5513 5516 5518 5521 5525 5527 5531 5538 5538 5539 5540 5543 5545 5547 5548 5549 5551 5552 5552 5552 5552 5552 5552 5552 5552 5551 5551
5414 5420 5426 5432 5439 5447 5453 5460 5467 5473 5479 5484 5488 5491 5495 5499 5503 5505 5508 5511 5514 5516 5521 5527 5528 5529 5530 5532 5535 5537 5538 5539 5540 5542 5542 5542 5543 5543 5543 5543 5543 5543 5542 5541
5407 5414 5421 5430 5438 5444 5450 5456 5462 5467 5471 5475 5480 5484 5489 5492 5493 5497 5500 5504 5505 5511 5516 5517 5518 5520 5522 5524 5526 5527 5529 5530 5532 5533 5533 5533 5534 5534 5534 5534 5534 5533 5532 5531
5401 5408 5417 5426 5433 5439 5445 5451 5455 5460 5463 5466 5471 5476 5480 5484 5486 5491 5493 5497 5501 5506 5507 5508 5509 5511 5513 5515 5516 5518 5519 5521 5523 5524 5524 5525 5525 5525 5525 5525 5524 5524 5523 5522
5392 5403 5411 5419 5426 5431 5438 5443 5448 5450 5455 5459 5463 5468 5472 5476 5478 5483 5487 5491 5493 5494 5495 5497 5500 5502 5505 5507 5508 5510 5511 5512 5513 5514 5514 5515 5515 5516 5516 5516 5516 5515 5514 5513